Regional Weather Roundup
Issued by NWS Green Bay, WI

Home | Current Version | Previous Version | Graphics & Text | Print | Product List | Glossary Off
Versions: 1 2 3 4 5 6 7 8 9 10 11 12 13 14 15 16 17 18 19 20 21 22 23 24 25 26 27 28 29 30 31 32 33 34 35 36 37 38 39 40 41 42 43 44 45 46 47 48 49 50

000
ASUS43 KGRB 220811
RWRGRB

NORTH-CENTRAL AND NORTHEAST WISCONSIN REGIONAL WEATHER ROUNDUP
NATIONAL WEATHER SERVICE GREEN BAY WI
300 AM CDT FRI MAY 22 2015

WIZ005-009-010>012-018-019-220900-
NORTH CENTRAL WISCONSIN

CITY           SKY/WX    TMP DP  RH WIND       PRES   REMARKS
IRONWOOD       CLEAR     36  34  93 CALM      30.10R
MANITOWISH WTR CLEAR     32  32 100 CALM      30.11R
ARBOR VITAE    CLEAR     42  33  71 CALM      30.11R
EAGLE RIVER    CLEAR     34  27  76 CALM      30.11R
LAND O LAKES   CLEAR     30  29  95 CALM      30.13R
RHINELANDER    CLEAR     38  29  70 CALM      30.12R
PHILLIPS       CLEAR     34  33  98 CALM      30.11R
ANTIGO         CLEAR     40  28  64 CALM      30.12R
TOMAHAWK       CLEAR     29  28  94 CALM      30.12R
MERRILL        CLEAR     33  32  99 CALM      30.12R
$$

WIZ013-073-220900-
NORTHEAST WISCONSIN

CITY           SKY/WX    TMP DP  RH WIND       PRES   REMARKS
IRON MOUNTAIN  CLEAR     31  24  75 CALM      30.10R
MARINETTE      CLEAR     36  28  75 CALM      30.11R
OCONTO         CLEAR     33  33 100 CALM      30.12R
$$

WIZ017-030-035>037-045-220900-
CENTRAL WISCONSIN

CITY           SKY/WX    TMP DP  RH WIND       PRES   REMARKS
MEDFORD        CLEAR     38  34  86 CALM      30.10S
WAUSAU         CLEAR     39  36  89 E3        30.11R
MOSINEE        CLEAR     41  36  81 CALM      30.12R
MARSHFIELD     CLEAR     44  34  67 CALM      30.11R
WISC RAPIDS    CLEAR     39  36  89 CALM      30.12R
STEVENS POINT  CLEAR     36  34  92 CALM      30.12R
WAUPACA        CLEAR     39  36  87 CALM      30.12R
SHAWANO        CLEAR     40  37  88 CALM      30.13R
CLINTONVILLE   CLEAR     37  36  93 CALM      30.12R
$$

WIZ038-039-048-051-220900-
FOX VALLEY

CITY           SKY/WX    TMP DP  RH WIND       PRES   REMARKS
NWS GREEN BAY  CLEAR     39  34  82 W5        30.12R
APPLETON       CLEAR     39  30  70 CALM      30.12R
OSHKOSH        CLEAR     45  30  55 CALM      30.11R
FOND DU LAC    CLEAR     39  31  72 W3        30.10R
$$

WIZ022-050-052-220900-
EAST CENTRAL WISCONSIN

CITY           SKY/WX    TMP DP  RH WIND       PRES   REMARKS
STURGEON BAY   CLEAR     36  28  75 CALM      30.13R
MANITOWOC      CLEAR     40  34  79 N5        30.11R
SHEBOYGAN      CLEAR     37  33  85 CALM      30.10R
$$

LMZ563-521-522-541>543-220900-
LAKESHORE

STATION/POSITION TIME  TEMP    WIND        PRES    VSBY  WAVE
                       AIR SEA DIR/SP/G                  HT/PER
                 (UTC) (F)     (DEG/KT/KT) (MB)    (MI)  (FT/S)
SHEBOYGAN LKSHOR 0800          350/  7/  8 1019.7R
KEWAUNEE LKSHORE 0700          320/  2/  5 1018.2R
NORTHPORT PIER   0700   47     340/  9/ 10 1019.0R
N MID LAKE BUOY  0750   40 36  320/  6/  6 1019.4R         1/ 3
SISTER BAY LKSHO 0702   43        CALM       N/A
CHAMBERS ISLAND  0700   45     310/  7/  9 1019.3R
MENOMINEE LKSHOR 0700          320/  7/  8 1019.7R
$$



USA.gov is the U.S. government's official web portal to all federal, state and local government web resources and services.